Printer-friendly version

IAU Minor Planet Center

Minor Planet Center

MPEC 2006-W82 : 2006 WS29

The following Minor Planet Electronic Circular may be linked-to from your own Web pages, but must not otherwise be redistributed electronically.

A form allowing access to any MPEC is at the bottom of this page.


Read MPEC 2006-W81 Read MPEC 2006-W83


M.P.E.C. 2006-W82                                Issued 2006 Nov. 24, 20:47 UT

     The Minor Planet Electronic Circulars contain information on unusual
         minor planets and routine data on comets.  They are published
   on behalf of Commission 20 of the International Astronomical Union by the
          Minor Planet Center, Smithsonian Astrophysical Observatory,
                          Cambridge, MA 02138, U.S.A.

             Prepared using the Tamkin Foundation Computer Network

                              MPC@CFA.HARVARD.EDU
          URL http://cfa-www.harvard.edu/iau/mpc.html  ISSN 1523-6714

                                   2006 WS29

Observations:
     K06W29S* C2006 11 22.30778 04 39 46.58 +11 12 38.9          20.4 V EW082G96
     K06W29S  C2006 11 22.30979 04 39 46.80 +11 12 56.3          20.4 V EW082G96
     K06W29S  C2006 11 22.31179 04 39 47.01 +11 13 14.6          20.4 V EW082G96
     K06W29S  C2006 11 22.31381 04 39 47.19 +11 13 31.8          20.4 V EW082G96
     K06W29S  C2006 11 22.34949 04 39 51.01 +11 18 51.5          20.5 V EW082G96
     K06W29S  C2006 11 22.35038 04 39 51.08 +11 18 58.8          20.5 V EW082G96
     K06W29S  C2006 11 22.35126 04 39 51.18 +11 19 06.9          20.3 V EW082G96
     K06W29S  C2006 11 22.35214 04 39 51.26 +11 19 14.4          21.2 V EW082G96
     K06W29S  C2006 11 22.39359 04 39 55.74 +11 25 25.5          20.4 V EW082G96
     K06W29S  C2006 11 22.39913 04 39 56.32 +11 26 16.2          21.6 V EW082G96
     K06W29S  C2006 11 22.40190 04 39 56.65 +11 26 40.4          20.6 V EW082G96
     K06W29S  C2006 11 23.32385 04 42 23.31 +13 56 03.5          20.2 V EW082G96
     K06W29S  C2006 11 23.33126 04 42 24.26 +13 57 21.5          19.9 V EW082G96
     K06W29S  C2006 11 23.33861 04 42 25.19 +13 58 38.3          20.4 V EW082G96
     K06W29S  C2006 11 23.34601 04 42 26.17 +13 59 55.5          20.1 V EW082G96
     K06W29S SC2006 11 24.06542 04 44 35.21 +16 12 48.9                 EW082J95
     K06W29S SC2006 11 24.06906 04 44 35.85 +16 13 30.8          20.1 R EW082J95

Observer details:
G96 Mt. Lemmon Survey.  Observers A. R. Gibbs, E. C. Beshore.  Measurers
    E. C. Beshore, E. J. Christensen, G. J. Garradd, A. R. Gibbs, A. D. Grauer,
    R. E. Hill, R. A. Kowalski, S. M. Larson, R. H. McNaught.  1.5-m reflector
    + CCD.
J95 Great Shefford.  Observer P. Birtwhistle.  0.40-m f/6.0 Schmidt-Cassegrain
    + CCD.

Orbital elements:
2006 WS29                                                Earth MOID = 0.0412 AU
Epoch 2006 Sept. 22.0 TT = JDT 2454000.5                MPC
M 308.97571              (2000.0)            P               Q
n   0.46289955     Peri.   56.81273     -0.48649791     -0.84434957
a   1.6550516      Node    63.87529     +0.69502546     -0.52971244
e   0.4552189      Incl.   14.47921     +0.52939531     -0.08048932
P   2.13           H   25.0           G   0.15           U   8
Residuals in seconds of arc
061122 G96  0.0   0.3+    061122 G96  0.0   0.1+    061123 G96  0.2+  0.2+
061122 G96  0.1+  0.2-    061122 G96  0.2-  0.2-    061123 G96  0.0   0.1+
061122 G96  0.1+  0.3+    061122 G96  0.1+  0.5-    061123 G96  0.5+  0.3-
061122 G96  0.4-  0.5-    061122 G96  0.3-  0.5+    061124 J95  0.4-  0.5+
061122 G96  0.3+  0.6+    061122 G96  0.1+  0.2-    061124 J95  0.3+  0.5-
061122 G96  0.1-  0.1-    061123 G96  0.1+  0.2-

Ephemeris:
2006 WS29                a,e,i = 1.66, 0.46, 14                  q = 0.9016
Date    TT    R. A. (2000) Decl.     Delta      r     Elong.  Phase     V
2006 11 21    04 36.94   +08 17.5    0.0939   1.078   162.9    15.6    20.9
2006 11 23    04 41.50   +13 01.6    0.0807   1.066   166.4    12.6    20.4
2006 11 25    04 47.89   +19 32.6    0.0685   1.055   169.1    10.2    19.9
2006 11 27    04 57.65   +28 39.2    0.0577   1.043   166.8    12.5    19.6
2006 11 29    05 14.46   +41 14.7    0.0493   1.032   156.9    22.0    19.6
2006 12 01    05 49.82   +57 16.8    0.0444   1.021   141.4    37.1    19.8
2006 12 03    07 35.26   +73 10.7    0.0441   1.011   123.3    54.6    20.2
2006 12 05    12 11.68   +76 25.5    0.0483   1.000   106.8    70.6    20.9
2006 12 07    14 24.62   +67 17.8    0.0561   0.991    94.0    82.8    21.6
2006 12 09    15 06.31   +58 41.6    0.0661   0.981    84.9    91.2    22.3
2006 12 11    15 25.27   +52 07.7    0.0774   0.972    78.6    97.0    22.9

Gareth V. Williams           (C) Copyright 2006 MPC           M.P.E.C. 2006-W82

Read MPEC 2006-W81 Read MPEC 2006-W83


MPEC number:

Enter an
MPEC number in one of the following forms:
  • 1997-B01 (the full form)
  • J97B01 (the packed version of the full form)
  • B01 (the abbreviated form)

Valid HTML 4.01!